Flag for Norway Weather past 2 weeks in Mosjøen, Norway

Now
42 °F

Quite cool.


Feels Like: 39 °F
Forecast: 24 / 43 °F
Wind: 5 mph from Northwest

Location: Mosjoen Kjaerstad

Current Time: Apr 28, 2015 at 5:03:29 PM

Latest Report: Apr 28, 2015 at 4:00 PM


Visibility: N/A

Pressure: 29.84 "Hg

Humidity: 70%

Dew point: 32 °F

Location of MosjøenLocation

Historic Weather in Mosjøen — Graph

°F

Mosjøen temperature yesterday

Maximum temperature yesterday: 49 °F (at 4:00 PM)
Minimum temperature yesterday: 30 °F (at 6:00 AM)
Average temperature yesterday: 39 °F

Past Weeks' High & Low Weather Summary

 TemperatureHumidityPressure
High49 °F (Apr 27, 4:00 PM)96% (Apr 14, 12:00 AM)30.35 "Hg (Apr 14, 12:00 AM)
Low26 °F (Apr 25, 6:00 AM)36% (Apr 27, 3:00 PM)29.26 "Hg (Apr 23, 9:00 AM)
Average38 °F78%29.80 "Hg
* Reported Apr 13 3:00 PM — Apr 28 3:00 PM, Mosjøen, Weather by CustomWeather, © 2015

Note: Actual official high and low records may vary slightly from our data, if they occured in-between our weather recording intervals... More about our weather records

Advertising

Mosjøen weather history for previous 24 hours

 ConditionsComfort  
Time TempWeatherWind HumidityBarometerVisibility
3:00 PM
Tue, Apr 28
47 °FCool.1 mph68%29.81 "HgN/A
2:00 PM41 °FQuite cool.1 mph76%29.81 "HgN/A
1:00 PM41 °FQuite cool.2 mph82%29.80 "HgN/A
12:00 PM37 °FChilly.5 mph82%29.80 "HgN/A
11:00 AM37 °FChilly.3 mph88%29.78 "HgN/A
10:00 AM34 °FChilly.2 mph89%29.78 "HgN/A
9:00 AM32 °FChilly.1 mph90%29.77 "HgN/A
8:00 AM32 °FChilly.2 mph84%29.75 "HgN/A
7:00 AM29 °FChilly.1 mph87%29.74 "HgN/A
6:00 AM28 °FChilly.2 mph87%29.73 "HgN/A
5:00 AM27 °FChilly.1 mph90%29.72 "HgN/A
4:00 AM28 °FChilly.1 mph90%29.72 "HgN/A
3:00 AM28 °FChilly.1 mph90%29.72 "HgN/A
2:00 AM29 °FChilly.2 mph86%29.71 "HgN/A
1:00 AM30 °FChilly.1 mph84%29.71 "HgN/A
12:00 AM30 °FChilly.1 mph84%29.70 "HgN/A
11:00 PM
Mon, Apr 27
32 °FChilly.1 mph80%29.69 "HgN/A
10:00 PM36 °FChilly.1 mph68%29.68 "HgN/A
9:00 PM39 °FChilly.2 mph62%29.67 "HgN/A
8:00 PM43 °FQuite cool.3 mph51%29.66 "HgN/A
7:00 PM46 °FCool.3 mph44%29.65 "HgN/A
6:00 PM46 °FCool.3 mph44%29.65 "HgN/A
5:00 PM48 °FCool.3 mph37%29.65 "HgN/A
Weather by CustomWeather, © 2015

See weather overviewHow to use our weather pages